#timestamp,LO_Frequency,Hit,StdDev 
1546869615.7,286046998.4,N
1546869635.5,286047001.0,N
1546869655.4,286047004.1,Y
1546869675.2,286047002.3,P
1546869695.0,286047000.1,N
1546869695.9,286047000.1,N
1546869715.8,286047002.5,N
1546869735.6,286047002.4,N
1546869755.4,286047001.7,N
1546869775.3,286046999.9,N
1546869795.1,286047000.1,N
1546869815.9,286046998.7,N
1546869835.7,286046999.8,N
1546869855.5,286047000.0,N
1546869875.4,286047000.1,N
1546869895.2,286047000.2,N
1546869915.0,286046998.1,N
1546869915.9,286046998.1,N
1546869935.8,286047001.1,N
1546869955.6,286046998.1,N
1546869975.5,286046999.7,N
1546869995.3,286046999.8,N
1546870015.1,286046999.8,N
1546870035.9,286047000.9,N
1546870055.7,286047000.6,N
1546870075.5,286047000.1,N
1546870095.4,286046998.4,N
1546870115.2,286047000.5,N
1546870135.1,286046998.6,N
1546870136.0,286046998.6,N
1546870155.8,286046999.2,N
1546870175.6,286046998.2,N
1546870195.5,286046996.5,N
1546870215.3,286046998.4,N
1546870235.1,286046998.4,N
1546870255.9,286046998.9,N
1546870275.7,286046998.5,N
1546870295.6,286046999.4,N
1546870315.4,286046999.1,N
1546870335.2,286046999.1,N
1546870355.1,286046996.6,Y
1546870356.0,286046996.6,P
1546870375.8,286046998.4,N
1546870395.7,286046998.3,N
1546870415.5,286047000.8,N
1546870435.3,286046999.8,N
1546870455.2,286047002.1,N
1546870475.0,286047002.7,N
1546870475.9,286047002.7,N
1546870495.7,286047000.8,N
1546870515.6,286046998.8,N
1546870535.4,286047000.6,N
1546870555.3,286047000.1,N
1546870575.0,286047002.4,N
1546870595.4,286047002.7,N
1546870615.3,286047000.9,N
1546870635.4,286047001.2,N
1546870655.3,286046998.9,N
1546870675.1,286046998.4,N
1546870695.8,286047001.2,N
1546870715.7,286047000.9,N
1546870735.5,286047001.5,N
1546870755.4,286047002.4,N
1546870775.2,286047004.4,N
1546870795.0,286046999.8,N
1546870795.9,286046999.8,N
1546870815.8,286046999.7,N
1546870835.6,286047002.0,N
1546870855.4,286047002.5,N
1546870875.3,286047002.5,N
1546870895.1,286047002.6,N
1546870915.9,286047002.1,N
1546870935.7,286047001.3,N
1546870955.5,286047001.8,N
1546870975.4,286047002.0,N
1546870995.2,286046999.7,N
1546871015.0,286047001.1,N
1546871016.0,286047001.1,N
1546871035.8,286046999.8,N
1546871055.6,286047002.3,N
1546871075.5,286047002.7,N
1546871095.4,286047000.4,N
1546871115.2,286046998.2,N
1546871135.0,286047001.2,N
1546871135.9,286047001.2,N
1546871155.8,286046998.6,N
1546871175.6,286046998.3,N
1546871195.5,286046999.0,N
1546871215.3,286046998.8,N
1546871235.1,286047000.8,N
1546871255.9,286047000.9,N
1546871275.7,286047000.4,N
1546871295.6,286047000.0,N
1546871315.4,286047001.0,N
1546871335.2,286047000.7,N
1546871355.1,286046998.5,N
1546871356.0,286046998.5,N
1546871375.8,286047000.5,N
1546871395.7,286047000.1,N
1546871415.5,286047000.8,N
1546871435.3,286047000.7,N
1546871455.2,286047000.5,N
1546871475.0,286047001.1,N
1546871475.9,286047001.1,N
1546871495.8,286047000.9,N
1546871515.6,286046999.1,N
1546871535.4,286046998.9,N
1546871555.3,286046998.8,N
1546871575.1,286046997.2,N
1546871595.8,286046997.1,N
1546871615.7,286046997.1,N
1546871635.5,286046999.1,N
1546871655.4,286047000.7,N
1546871675.2,286047000.6,N
1546871695.0,286047000.9,N
1546871695.9,286047000.9,N
1546871715.8,286046998.4,N
1546871765.6,286047000.9,E
1546871775.6,286047000.8,N
1546871795.4,286046999.9,P
1546871815.2,286047002.6,P
1546871835.1,286047002.5,N
1546871836.0,286047002.5,N
1546871855.8,286047002.4,N
1546871875.7,286047000.3,N
1546871895.5,286046999.9,N
1546871915.3,286046999.8,N
1546871935.2,286047001.9,N
1546871955.9,286047002.3,N
1546871975.7,286047000.3,N
1546871995.6,286047002.8,N
1546872015.4,286047000.6,N
1546872035.3,286046999.8,N
1546872055.1,286047002.7,N
1546872056.0,286047002.7,N
1546872075.8,286047000.0,N
1546872095.7,286047000.2,N
1546872115.5,286047000.0,N
1546872135.3,286046998.6,N
1546872155.2,286047001.1,N
1546872175.0,286047000.0,N
1546872175.9,286047000.0,N
1546872195.8,286047000.8,N
1546872215.6,286047001.2,N
1546872235.4,286046999.3,N
1546872255.3,286046998.2,N
1546872275.1,286047000.3,N
1546872295.8,286046998.5,N
1546872315.7,286046999.0,N
1546872335.5,286046999.1,N
1546872355.4,286046998.1,N
1546872375.2,286047000.7,N
1546872395.0,286046998.8,N
1546872395.9,286046998.8,N
1546872415.8,286047001.1,N
1546872435.6,286046998.4,N
1546872455.5,286046999.4,N
1546872475.3,286046999.2,N
1546872495.1,286046999.6,N
1546872515.9,286046999.5,N
1546872535.7,286046996.9,N
1546872555.5,286046995.6,Y
1546872575.4,286046995.5,P
1546872595.2,286046996.5,N
1546872615.1,286046997.0,N
1546872616.0,286046997.0,N
1546872635.8,286046995.6,Y
1546872655.6,286046998.2,P
1546872675.5,286046998.2,P
1546872695.5,286047000.2,N
1546872715.3,286047000.0,N
1546872735.1,286047002.1,N
1546872755.9,286047000.8,N
1546872775.7,286046999.7,N
1546872795.5,286047000.0,N
1546872815.4,286046998.1,N
1546872835.2,286046998.8,N
1546872855.1,286046997.2,N
1546872856.0,286046997.2,N
1546872875.8,286046999.5,N
1546872895.6,286046999.3,N
1546872915.5,286046997.7,N
1546872935.3,286046995.5,Y
1546872955.2,286046995.0,P
1546872975.9,286046997.4,N
1546872995.7,286046997.2,N
1546873015.6,286046995.4,Y
1546873035.4,286046999.3,P
1546873055.2,286046999.1,N
1546873075.1,286046998.1,N
1546873076.0,286046998.1,N
1546873095.8,286046998.3,N
1546873115.7,286046999.0,N
1546873135.5,286046999.0,N
1546873155.3,286046999.3,N
1546873175.2,286046998.5,N
1546873195.0,286046996.5,Y
1546873195.9,286046996.5,P
